Location: Unspecified
(48.5670°N, 0.0000°E)
Time: 03:29:26
(UTC+00:00)

Vanguard 2 Rocket - Pass Details

Date: 30 August 2019
Orbit: 554 x 3326 km, 32.9° (Epoch: 13 October)

Event Time Altitude Azimuth Distance (km) Brightness Sun altitude
Rises 02:39:13 0° 243° (WSW) 4,424 - -22.6°
Reaches altitude 10° 02:41:56 10° 235° (SW) 3,763 - -22.3°
Exits shadow 02:46:43 30° 211° (SSW) 3,007 8.9 -21.7°
Maximum altitude 02:51:22 39° 171° (S) 3,003 9.2 -21.2°
Drops below altitude 10° 03:06:16 10° 111° (ESE) 5,876 11.4 -19.4°
Sets 03:11:50 0° 106° (ESE) 7,141 12.0 -18.7°
